LEMD Weather Reports


Display with metric or nautical units.
time (UTC)temp
F
wind
direction
speed
MPH
gust
MPH
rain 1hr
in
rain 24hr
in
rain mn
in
humidity
%
barometer
mb
20260903161503 100 220 8.0 0.0 0.00 0.00 0.00 11 1022.0
20260903160004 100 220 8.0 0.0 0.00 0.00 0.00 11 1022.0
20260903154503 100 220 8.0 0.0 0.00 0.00 0.00 11 1022.0
20260903153004 100 0 8.0 0.0 0.00 0.00 0.00 11 1022.0
20260903144503 99 250 8.0 0.0 0.00 0.00 0.00 12 1023.0
20260903143004 99 210 1.0 0.0 0.00 0.00 0.00 12 1023.0
20260903140004 99 220 1.0 0.0 0.00 0.00 0.00 14 1023.0
20260903133003 97 240 12.0 0.0 0.00 0.00 0.00 15 1024.0
20260903131503 97 240 12.0 0.0 0.00 0.00 0.00 15 1024.0
20260903130003 95 200 6.0 0.0 0.00 0.00 0.00 17 1024.0
20260903124504 95 200 6.0 0.0 0.00 0.00 0.00 17 1024.0
20260903123003 93 230 2.0 0.0 0.00 0.00 0.00 24 1024.0
20260903121503 93 230 2.0 0.0 0.00 0.00 0.00 24 1024.0
20260903114504 90 210 2.0 0.0 0.00 0.00 0.00 25 1024.0
20260903111503 88 220 3.0 0.0 0.00 0.00 0.00 31 1025.0
20260903110004 84 300 2.0 0.0 0.00 0.00 0.00 35 1025.0
20260903103003 82 0 3.0 0.0 0.00 0.00 0.00 34 1025.0
20260903101504 82 0 3.0 0.0 0.00 0.00 0.00 34 1025.0
20260903094504 79 280 3.0 0.0 0.00 0.00 0.00 36 1025.0
20260903093003 77 320 3.0 0.0 0.00 0.00 0.00 33 1025.0
20260903084503 73 0 2.0 0.0 0.00 0.00 0.00 33 1025.0
20260903083004 70 340 3.0 0.0 0.00 0.00 0.00 37 1025.0
20260903081503 70 340 3.0 0.0 0.00 0.00 0.00 37 1025.0
20260903080004 66 0 2.0 0.0 0.00 0.00 0.00 39 1025.0
20260903073003 64 350 3.0 0.0 0.00 0.00 0.00 42 1024.0
20260903070003 64 0 2.0 0.0 0.00 0.00 0.00 42 1024.0
20260903054504 64 350 3.0 0.0 0.00 0.00 0.00 42 1023.0
20260903043003 66 360 2.0 0.0 0.00 0.00 0.00 39 1023.0
20260903041504 66 360 2.0 0.0 0.00 0.00 0.00 39 1023.0
20260903040004 66 350 3.0 0.0 0.00 0.00 0.00 39 1023.0
20260903033004 68 0 2.0 0.0 0.00 0.00 0.00 37 1023.0
20260903031502 68 0 2.0 0.0 0.00 0.00 0.00 37 1023.0
20260903023003 70 350 3.0 0.0 0.00 0.00 0.00 35 1023.0
20260903021503 70 350 3.0 0.0 0.00 0.00 0.00 35 1023.0
20260903013003 72 360 3.0 0.0 0.00 0.00 0.00 35 1023.0
20260903010003 72 340 3.0 0.0 0.00 0.00 0.00 37 1023.0
20260903004503 72 340 3.0 0.0 0.00 0.00 0.00 37 1023.0
20260903000003 73 0 2.0 0.0 0.00 0.00 0.00 35 1023.0
20260902234504 73 0 2.0 0.0 0.00 0.00 0.00 35 1023.0
20260902233003 77 350 7.0 0.0 0.00 0.00 0.00 31 1022.0
20260902230003 77 0 1.0 0.0 0.00 0.00 0.00 33 1022.0
20260902224503 77 0 1.0 0.0 0.00 0.00 0.00 33 1022.0
20260902223003 79 350 3.0 0.0 0.00 0.00 0.00 31 1022.0
20260902221503 79 350 3.0 0.0 0.00 0.00 0.00 31 1022.0
20260902210003 82 60 1.0 0.0 0.00 0.00 0.00 28 1021.0
20260902204503 82 60 1.0 0.0 0.00 0.00 0.00 28 1021.0
20260902201503 91 200 3.0 0.0 0.00 0.00 0.00 21 1021.0
20260902200004 91 190 5.0 0.0 0.00 0.00 0.00 21 1021.0
20260902191503 93 210 6.0 0.0 0.00 0.00 0.00 18 1020.0
20260902190003 95 210 6.0 0.0 0.00 0.00 0.00 17 1020.0
20260902181503 95 210 3.0 0.0 0.00 0.00 0.00 17 1020.0
20260902180006 95 260 7.0 0.0 0.00 0.00 0.00 19 1020.0
20260902174503 95 260 7.0 0.0 0.00 0.00 0.00 19 1020.0
20260902173004 97 260 6.0 0.0 0.00 0.00 0.00 18 1021.0
20260902170004 95 220 6.0 0.0 0.00 0.00 0.00 19 1021.0
20260902164503 95 220 6.0 0.0 0.00 0.00 0.00 19 1021.0